Location: Six Mile Lake
(44.9000°N, 79.7170°W)
Time: 04:18:01
(UTC-04:00)

AO-92 - Pass Details

Date: 04 July 2022
Orbit: 469 x 481 km, 97.4° (Epoch: 17 August)

Event Time Altitude Azimuth Distance (km) Brightness Sun altitude
Exits shadow 22:13:06 - 103° (ESE) 1,709 ? -9.6°
Reaches altitude 10° 22:13:18 10° 100° (E) 1,657 ? -9.6°
Maximum altitude 22:15:21 15° 65° (ENE) 1,388 ? -9.9°
Drops below altitude 10° 22:17:26 10° 29° (NNE) 1,669 ? -10.1°
Sets 22:20:12 0° 6° (N) 2,559 ? -10.5°
